CW1950 Weather Reports


Display with metric or nautical units.
time (UTC)temp
F
wind
direction
speed
MPH
gust
MPH
rain 1hr
in
rain 24hr
in
rain mn
in
humidity
%
barometer
mb
20260505010504 69 286 3.0 7.0 0.00 0.00 0.00 48 1010.7
20260505010003 69 272 3.0 12.0 0.00 0.00 0.00 48 1010.7
20260505000004 72 275 4.0 12.0 0.00 0.00 0.00 47 1010.5
20260504230503 73 284 3.0 9.0 0.00 0.00 0.00 50 1010.8
20260504230003 73 278 6.0 12.0 0.00 0.00 0.00 50 1010.9
20260504220504 73 274 5.0 12.0 0.00 0.00 0.00 52 1011.2
20260504220003 73 251 4.0 12.0 0.00 0.00 0.00 51 1011.2
20260504210504 73 256 5.0 13.0 0.00 0.00 0.00 56 1011.7
20260504210004 73 237 5.0 13.0 0.00 0.00 0.00 56 1011.8
20260504190504 68 252 4.0 10.0 0.00 0.00 0.00 66 1012.0
20260504190003 68 231 4.0 12.0 0.00 0.00 0.00 67 1012.1
20260504180004 65 225 3.0 9.0 0.00 0.00 0.00 73 1012.1
20260504170504 62 220 3.0 7.0 0.00 0.00 0.00 79 1011.9
20260504150503 52 309 2.0 3.0 0.00 0.00 0.00 87 1012.1
20260504140504 50 312 0.0 2.0 0.00 0.00 0.00 87 1012.0
20260504130503 50 0 0.0 0.0 0.00 0.00 0.00 87 1011.4
20260504110503 50 233 0.0 1.0 0.00 0.00 0.00 87 1011.4
20260504080504 52 350 0.0 1.0 0.00 0.00 0.00 85 1012.0
20260504050503 56 358 1.0 2.0 0.00 0.00 0.00 79 1011.5
20260504050004 56 11 1.0 2.0 0.00 0.00 0.00 79 1011.5
20260504040503 58 350 0.0 1.0 0.00 0.00 0.00 78 1010.8
20260504040004 59 325 0.0 3.0 0.00 0.00 0.00 77 1010.8
20260504030503 61 304 1.0 3.0 0.00 0.00 0.00 70 1010.4
20260504030004 61 287 2.0 8.0 0.00 0.00 0.00 70 1010.2
20260504020503 64 273 3.0 8.0 0.00 0.00 0.00 61 1009.8
20260504020004 65 277 3.0 12.0 0.00 0.00 0.00 61 1009.9